sat.trackr.live / text

‹ back to catalog

STARLINK-6142

NORAD 57113 · 2023-090N

PAYLOAD ACTIVE UNKNOWN

§ Identity

Operator
Country
US
Launch date
2023-06-23
Launch site
AFETR
Launch vehicle
Mass (kg)
RCS (m²)

Purposes: comms

External: N2YO · Heavens-Above · Gunter

§ Orbital elements

Epoch: 2026-05-24T14:16:06.215232Z

Period
94.27 min
Inclination
43.0021°
Eccentricity
0.0001459
Mean motion
15.27577954 rev/d
Perigee alt
482.1 km
Apogee alt
484.1 km
Semi-major
6,861.2 km
B*
5.4441e-5
RAAN
212.6608°
Arg perigee
267.9876°
Mean anomaly
92.0809°
Rev number
16,194

§ Raw data

STARLINK-61421 57113U 23090N   26144.59451638  .00001236  00000+0  54441-4 0  99922 57113  43.0021 212.6608 0001459 267.9876  92.0809 15.27577954161949

JSON: /api/v1/satellites/57113 · /tle

For live sub-satellite position, see the globe view (requires WebGL).

§ Visibility from observer

Set your observer location to see the next 7 days of passes ≥ 10°. The values pass through the URL so the page stays shareable.

No JS? Fill the form by hand. The geolocation button needs JavaScript.